Crestview, FL

2:13 AM CDT on April 25, 2017 (GMT -0500)
Sikes

Weather History for KCEW - March, 2014

Change the Weather History Date:

Friday, March 21, 2014

  Actual Average Record
Temperature  
Mean Temperature 59 °F -  
Max Temperature 80 °F 71 °F 86 °F (2015)
Min Temperature 39 °F 47 °F 28 °F (1990)
Degree Days  
Heating Degree Days 6    
Growing Degree Days 9 (Base 50)    
Moisture  
Dew Point 46 °F    
Average Humidity 70    
Maximum Humidity 97    
Minimum Humidity 23    
Precipitation  
Precipitation 0.00 in - - ()
Sea Level Pressure  
Sea Level Pressure 30.08 in    
Wind  
Wind Speed 2 mph (SSE)    
Max Wind Speed 10 mph    
Max Gust Speed 18 mph    
Visibility 7 miles    
Events      
Averages and records for this station are not official NWS values.
T = Trace of Precipitation, MM = Missing Value Source: NWS Daily Summary

Daily Weather History Graph

Daily Weather History Graph

Search for Another Location

Airport or City:

Trip Planner

Search our weather history database for the weather conditions in past years. The results will help you decide how hot, cold, wet, or windy it might be!

Date:

Astronomy

Mar. 21, 2014 Rise Set
Actual Time 6:48 AM CDT 6:58 PM CDT
Civil Twilight 6:24 AM CDT 7:22 PM CDT
Nautical Twilight 5:56 AM CDT 7:50 PM CDT
Astronomical Twilight 5:28 AM CDT 8:18 PM CDT
Moon 11:58 PM CDT (3/21) 9:58 AM CDT (3/21)
Length of Visible Light 12h 57m
Length of Day
12h 09m
Waning Gibbous, 75% of the Moon is Illuminated
Mar 21
Waning Gibbous
Mar 23
Last Quarter
Mar 30
New
Apr 7
First Quarter
Apr 15
Full

Hourly Weather History & Observations

Time (CDT) Temp. Dew Point Humidity Pressure Visibility Wind Dir Wind Speed Gust Speed Precip Events Conditions
12:53 AM 46.9 °F 45.0 °F 93% 30.09 in 5.0 mi Calm Calm - N/A   Clear
1:53 AM 45.0 °F 43.0 °F 93% 30.09 in 4.0 mi Calm Calm - N/A   Clear
2:53 AM 43.0 °F 41.0 °F 93% 30.09 in 6.0 mi Calm Calm - N/A   Clear
3:53 AM 42.1 °F 39.9 °F 92% 30.09 in 5.0 mi Calm Calm - N/A   Clear
4:53 AM 41.0 °F 39.0 °F 93% 30.09 in 5.0 mi Calm Calm - N/A   Clear
5:53 AM 41.0 °F 39.0 °F 93% 30.10 in 6.0 mi Calm Calm - N/A   Clear
6:53 AM 39.9 °F 37.9 °F 93% 30.12 in 4.0 mi Calm Calm - N/A   Clear
7:53 AM 46.9 °F 43.0 °F 86% 30.13 in 9.0 mi Calm Calm - N/A   Clear
8:53 AM 57.9 °F 41.0 °F 53% 30.14 in 10.0 mi ENE 5.8 mph - N/A   Clear
9:53 AM 66.9 °F 39.9 °F 37% 30.15 in 10.0 mi Variable 4.6 mph - N/A   Clear
10:53 AM 72.0 °F 37.0 °F 28% 30.15 in 10.0 mi East 8.1 mph - N/A   Clear
11:53 AM 75.0 °F 37.0 °F 25% 30.13 in 10.0 mi Variable 3.5 mph - N/A   Clear
12:53 PM 75.9 °F 39.9 °F 27% 30.10 in 10.0 mi Variable 5.8 mph - N/A   Clear
1:53 PM 78.1 °F 37.9 °F 24% 30.07 in 10.0 mi Variable 3.5 mph - N/A   Clear
2:53 PM 79.0 °F 37.9 °F 23% 30.05 in 10.0 mi North - - N/A   Clear
3:53 PM 79.0 °F 41.0 °F 26% 30.04 in 10.0 mi SSW 5.8 mph - N/A   Clear
4:53 PM 75.9 °F 43.0 °F 31% 30.02 in 10.0 mi South 10.4 mph 18.4 mph 0.00 in   Clear
5:53 PM 72.0 °F 48.9 °F 44% 30.04 in 10.0 mi South 9.2 mph - N/A   Clear
6:53 PM 68.0 °F 53.1 °F 59% 30.05 in 10.0 mi South 9.2 mph - N/A   Clear
7:53 PM 64.9 °F 54.0 °F 68% 30.05 in 10.0 mi South 3.5 mph - N/A   Clear
8:53 PM 63.0 °F 57.9 °F 84% 30.06 in 9.0 mi South 4.6 mph - N/A   Clear
9:53 PM 61.0 °F 57.9 °F 90% 30.06 in 6.0 mi Calm Calm - N/A   Partly Cloudy
10:53 PM 55.9 °F 55.0 °F 97% 30.07 in 3.0 mi Calm Calm - N/A   Clear
10:59 PM 57.0 °F 55.0 °F 93% 30.06 in 1.0 mi Calm Calm - N/A   Clear
11:06 PM 55.9 °F 55.0 °F 97% 30.06 in 0.8 mi Calm Calm - N/A   Mist
11:11 PM 55.9 °F 54.0 °F 93% 30.06 in 2.0 mi Calm Calm - N/A   Partly Cloudy
11:21 PM 55.9 °F 54.0 °F 93% 30.06 in 4.0 mi Calm Calm - N/A   Partly Cloudy
11:48 PM 55.4 °F 53.6 °F 94% 30.05 in 4.0 mi Calm Calm - N/A   Mostly Cloudy
11:49 PM 55.0 °F 54.0 °F 96% 30.05 in 4.0 mi Calm Calm - N/A   Mostly Cloudy